EW4504 Weather Reports


Display with metric or nautical units.
time (UTC)temp
F
wind
direction
speed
MPH
gust
MPH
rain 1hr
in
rain 24hr
in
rain mn
in
humidity
%
barometer
mb
20260506033047 71 132 1.0 7.0 0.00 0.00 0.00 47 1013.3
20260506032531 71 0 2.0 7.0 0.00 0.00 0.00 47 1013.4
20260506032031 71 156 2.0 5.0 0.00 0.00 0.00 46 1013.3
20260506031542 71 133 0.0 6.0 0.00 0.00 0.00 46 1013.3
20260506031030 72 142 2.0 7.0 0.00 0.00 0.00 45 1013.4
20260506030528 72 173 3.0 7.0 0.00 0.00 0.00 45 1013.3
20260506030042 72 170 2.0 7.0 0.00 0.00 0.00 45 1013.4
20260506025530 72 169 2.0 7.0 0.00 0.00 0.00 45 1013.3
20260506025033 72 138 1.0 5.0 0.00 0.00 0.00 45 1013.3
20260506024544 72 180 1.0 8.0 0.00 0.00 0.00 45 1013.4
20260506024029 72 167 2.0 9.0 0.00 0.00 0.00 45 1013.5
20260506023531 72 169 2.0 9.0 0.00 0.00 0.00 45 1013.4
20260506023049 72 0 2.0 6.0 0.00 0.00 0.00 45 1013.3
20260506022528 72 0 1.0 7.0 0.00 0.00 0.00 45 1013.3
20260506022031 72 219 2.0 7.0 0.00 0.00 0.00 45 1013.2
20260506021555 73 150 2.0 5.0 0.00 0.00 0.00 46 1013.2
20260506021029 73 189 1.0 4.0 0.00 0.00 0.00 45 1013.2
20260506020528 73 211 0.0 5.0 0.00 0.00 0.00 45 1013.2
20260506020042 73 215 1.0 5.0 0.00 0.00 0.00 46 1013.2
20260506015532 73 177 1.0 4.0 0.00 0.00 0.00 45 1013.2
20260506015031 73 178 1.0 6.0 0.00 0.00 0.00 45 1013.1
20260506014543 73 177 0.0 9.0 0.00 0.00 0.00 45 1013.0
20260506014030 73 0 1.0 9.0 0.00 0.00 0.00 45 1013.0
20260506013529 73 202 2.0 9.0 0.00 0.00 0.00 45 1013.1
20260506013040 73 203 1.0 6.0 0.00 0.00 0.00 45 1013.1
20260506012531 73 202 1.0 6.0 0.00 0.00 0.00 45 1013.0
20260506012030 73 229 3.0 6.0 0.00 0.00 0.00 45 1012.9
20260506011538 73 191 1.0 6.0 0.00 0.00 0.00 45 1012.8
20260506011030 73 199 1.0 6.0 0.00 0.00 0.00 44 1012.8
20260506010529 73 204 2.0 7.0 0.00 0.00 0.00 44 1012.8
20260506010048 73 219 1.0 10.0 0.00 0.00 0.00 44 1012.7
20260506005528 74 213 3.0 10.0 0.00 0.00 0.00 44 1012.8
20260506005028 74 217 4.0 10.0 0.00 0.00 0.00 43 1012.9
20260506004547 74 196 4.0 10.0 0.00 0.00 0.00 43 1012.8
20260506004028 74 211 3.0 10.0 0.00 0.00 0.00 42 1012.9
20260506003529 74 238 4.0 11.0 0.00 0.00 0.00 42 1013.0
20260506003042 75 213 5.0 11.0 0.00 0.00 0.00 42 1012.9
20260506002528 75 198 3.0 9.0 0.00 0.00 0.00 42 1012.9
20260506002030 75 211 4.0 9.0 0.00 0.00 0.00 41 1012.8
20260506001546 75 207 4.0 8.0 0.00 0.00 0.00 41 1012.8
20260506001029 75 208 3.0 7.0 0.00 0.00 0.00 41 1012.9
20260506000531 75 205 4.0 10.0 0.00 0.00 0.00 40 1012.9
20260506000042 76 225 3.0 13.0 0.00 0.00 0.00 40 1012.9
20260505235528 76 215 5.0 13.0 0.00 0.00 0.00 40 1012.9
20260505235029 76 197 5.0 10.0 0.00 0.00 0.00 40 1012.8
20260505234604 76 212 4.0 11.0 0.00 0.00 0.00 40 1012.9
20260505234030 76 227 4.0 11.0 0.00 0.00 0.00 40 1012.9
20260505233530 76 224 4.0 10.0 0.00 0.00 0.00 40 1012.9
20260505233043 77 202 3.0 9.0 0.00 0.00 0.00 40 1012.8
20260505232528 77 192 2.0 9.0 0.00 0.00 0.00 40 1012.8
20260505232029 77 229 3.0 9.0 0.00 0.00 0.00 40 1012.8
20260505231541 77 215 3.0 9.0 0.00 0.00 0.00 39 1012.8
20260505231030 77 134 0.0 5.0 0.00 0.00 0.00 40 1012.7
20260505230530 77 0 1.0 7.0 0.00 0.00 0.00 39 1012.6
20260505230039 77 189 2.0 7.0 0.00 0.00 0.00 38 1012.4
20260505225528 78 138 3.0 8.0 0.00 0.00 0.00 38 1012.4
20260505225030 78 220 4.0 9.0 0.00 0.00 0.00 38 1012.7
20260505224539 78 217 3.0 9.0 0.00 0.00 0.00 38 1012.8
20260505224033 78 231 3.0 8.0 0.00 0.00 0.00 38 1012.8
20260505223530 77 208 3.0 8.0 0.00 0.00 0.00 39 1012.8
20260505223044 78 105 2.0 8.0 0.00 0.00 0.00 38 1012.8
20260505222530 78 215 3.0 8.0 0.00 0.00 0.00 39 1012.8
20260505222032 78 192 2.0 8.0 0.00 0.00 0.00 39 1012.7
20260505221542 78 229 2.0 13.0 0.00 0.00 0.00 39 1012.8
20260505221032 78 128 3.0 13.0 0.00 0.00 0.00 38 1012.8
20260505220530 78 179 2.0 7.0 0.00 0.00 0.00 39 1012.8
20260505220042 78 215 2.0 8.0 0.00 0.00 0.00 38 1012.8
20260505215530 78 219 5.0 10.0 0.00 0.00 0.00 38 1012.6
20260505215030 79 179 3.0 11.0 0.00 0.00 0.00 38 1012.7
20260505214559 79 219 4.0 11.0 0.00 0.00 0.00 38 1012.9
20260505214030 79 188 4.0 12.0 0.00 0.00 0.00 38 1012.9
20260505213530 79 119 3.0 12.0 0.00 0.00 0.00 37 1012.9
20260505213037 80 99 4.0 11.0 0.00 0.00 0.00 36 1012.9
20260505212531 80 190 4.0 11.0 0.00 0.00 0.00 37 1012.9
20260505212029 80 113 5.0 10.0 0.00 0.00 0.00 37 1013.1
20260505211542 80 132 3.0 10.0 0.00 0.00 0.00 37 1013.0
20260505211030 79 227 4.0 14.0 0.00 0.00 0.00 36 1013.1
20260505210527 79 221 5.0 14.0 0.00 0.00 0.00 36 1013.1
20260505210041 79 194 5.0 10.0 0.00 0.00 0.00 36 1013.1
20260505205528 80 216 2.0 12.0 0.00 0.00 0.00 37 1013.1
20260505205029 80 189 4.0 13.0 0.00 0.00 0.00 37 1013.2
20260505204548 79 253 7.0 13.0 0.00 0.00 0.00 37 1013.3
20260505204031 79 164 3.0 11.0 0.00 0.00 0.00 37 1013.3
20260505203530 79 186 6.0 12.0 0.00 0.00 0.00 36 1013.3
20260505203046 79 191 7.0 12.0 0.00 0.00 0.00 37 1013.4
20260505202530 80 155 5.0 12.0 0.00 0.00 0.00 38 1013.4
20260505202027 79 135 4.0 12.0 0.00 0.00 0.00 38 1013.4
20260505201545 79 169 4.0 11.0 0.00 0.00 0.00 39 1013.5
20260505201028 79 259 4.0 9.0 0.00 0.00 0.00 37 1013.5
20260505200531 79 175 3.0 11.0 0.00 0.00 0.00 37 1013.6
20260505200058 79 255 5.0 12.0 0.00 0.00 0.00 39 1013.8
20260505195530 79 185 3.0 12.0 0.00 0.00 0.00 38 1013.9
20260505195029 79 139 5.0 12.0 0.00 0.00 0.00 39 1014.0
20260505194547 80 149 6.0 11.0 0.00 0.00 0.00 38 1014.2
20260505194031 79 152 5.0 11.0 0.00 0.00 0.00 37 1014.2
20260505193530 79 75 3.0 13.0 0.00 0.00 0.00 38 1014.4
20260505193051 79 186 3.0 14.0 0.00 0.00 0.00 37 1014.3
20260505192533 79 159 5.0 14.0 0.00 0.00 0.00 38 1014.5
20260505192030 79 240 6.0 14.0 0.00 0.00 0.00 38 1014.3
20260505191537 80 205 6.0 14.0 0.00 0.00 0.00 37 1014.3
20260505191030 80 218 6.0 14.0 0.00 0.00 0.00 37 1014.4
20260505190528 79 150 4.0 14.0 0.00 0.00 0.00 36 1014.5
20260505190037 79 214 6.0 11.0 0.00 0.00 0.00 38 1014.5
20260505185528 79 178 4.0 15.0 0.00 0.00 0.00 38 1014.4
20260505185030 79 188 4.0 15.0 0.00 0.00 0.00 38 1014.5
20260505184542 80 98 6.0 13.0 0.00 0.00 0.00 36 1014.5
20260505184031 80 217 4.0 10.0 0.00 0.00 0.00 38 1014.7
20260505183531 80 128 4.0 18.0 0.00 0.00 0.00 38 1014.6
20260505183041 79 223 8.0 18.0 0.00 0.00 0.00 38 1014.6
20260505182527 79 146 5.0 11.0 0.00 0.00 0.00 38 1014.6
20260505182028 79 239 4.0 10.0 0.00 0.00 0.00 37 1014.8
20260505181543 80 218 4.0 13.0 0.00 0.00 0.00 38 1014.8
20260505181029 80 217 7.0 19.0 0.00 0.00 0.00 37 1015.0
20260505180529 81 201 7.0 19.0 0.00 0.00 0.00 37 1015.1
20260505180104 80 229 5.0 13.0 0.00 0.00 0.00 39 1015.0
20260505175530 80 209 6.0 11.0 0.00 0.00 0.00 39 1015.2
20260505175034 80 222 5.0 17.0 0.00 0.00 0.00 39 1015.2
20260505174558 80 198 7.0 17.0 0.00 0.00 0.00 39 1015.2
20260505174030 80 212 5.0 14.0 0.00 0.00 0.00 38 1015.2
20260505173533 79 215 2.0 12.0 0.00 0.00 0.00 39 1015.4
20260505173045 79 209 6.0 12.0 0.00 0.00 0.00 40 1015.5
20260505172531 79 114 3.0 10.0 0.00 0.00 0.00 42 1015.4
20260505172035 79 229 4.0 11.0 0.00 0.00 0.00 41 1015.5
20260505171540 79 209 6.0 11.0 0.00 0.00 0.00 41 1015.5
20260505171031 79 205 5.0 12.0 0.00 0.00 0.00 41 1015.5
20260505170531 79 249 6.0 17.0 0.00 0.00 0.00 41 1015.6
20260505170039 79 207 6.0 17.0 0.00 0.00 0.00 39 1015.5
20260505165534 79 218 9.0 17.0 0.00 0.00 0.00 39 1015.6
20260505165033 79 193 8.0 17.0 0.00 0.00 0.00 39 1015.5
20260505164545 79 196 6.0 16.0 0.00 0.00 0.00 41 1015.5
20260505164030 78 198 5.0 16.0 0.00 0.00 0.00 40 1015.4
20260505163531 78 180 6.0 14.0 0.00 0.00 0.00 41 1015.4
20260505163041 79 210 4.0 14.0 0.00 0.00 0.00 42 1015.4
20260505162530 79 217 6.0 13.0 0.00 0.00 0.00 44 1015.4
20260505162029 79 205 6.0 14.0 0.00 0.00 0.00 44 1015.4
20260505161540 78 201 6.0 14.0 0.00 0.00 0.00 45 1015.5
20260505161033 78 180 6.0 17.0 0.00 0.00 0.00 44 1015.5
20260505160530 78 219 5.0 17.0 0.00 0.00 0.00 43 1015.6
20260505153043 74 167 2.0 7.0 0.00 0.00 0.00 52 1015.8
20260505152535 74 146 2.0 8.0 0.00 0.00 0.00 53 1015.9
20260505152029 73 171 3.0 8.0 0.00 0.00 0.00 54 1015.7
20260505151540 72 271 0.0 4.0 0.00 0.00 0.00 57 1015.6
20260505151033 72 267 1.0 4.0 0.00 0.00 0.00 56 1015.8
20260505150534 73 0 1.0 4.0 0.00 0.00 0.00 56 1015.8
20260505140529 66 300 1.0 3.0 0.00 0.00 0.00 66 1016.0
20260505125031 58 53 1.0 3.0 0.00 0.00 0.00 77 1015.5
20260505124540 57 54 1.0 3.0 0.00 0.00 0.00 78 1015.4
20260505124029 57 0 0.0 0.0 0.00 0.00 0.00 79 1015.4
20260505123533 56 0 0.0 2.0 0.00 0.00 0.00 80 1015.5
20260505123038 56 0 0.0 3.0 0.00 0.00 0.00 80 1015.4
20260505122536 55 0 1.0 4.0 0.00 0.00 0.00 80 1015.3
20260505122035 55 56 1.0 4.0 0.00 0.00 0.00 81 1015.2
20260505121536 54 156 1.0 4.0 0.00 0.00 0.00 83 1015.3
20260505121033 53 0 0.0 3.0 0.00 0.00 0.00 84 1015.3
20260505120530 53 0 0.0 0.0 0.00 0.00 0.00 85 1015.3
20260505120044 52 0 0.0 0.0 0.00 0.00 0.00 85 1015.2
20260505115531 52 0 0.0 0.0 0.00 0.00 0.00 85 1015.2
20260505115035 51 0 0.0 0.0 0.00 0.00 0.00 85 1015.2
20260505114540 51 0 0.0 0.0 0.00 0.00 0.00 85 1015.1
20260505114032 51 0 0.0 0.0 0.00 0.00 0.00 85 1015.0
20260505113530 50 0 0.0 0.0 0.00 0.00 0.00 85 1014.8
20260505113037 50 0 0.0 0.0 0.00 0.00 0.00 85 1014.7
20260505112534 50 0 0.0 0.0 0.00 0.00 0.00 85 1014.6
20260505112032 50 0 0.0 0.0 0.00 0.00 0.00 85 1014.5
20260505111544 49 0 0.0 2.0 0.00 0.00 0.00 84 1014.4
20260505111032 49 0 0.0 2.0 0.00 0.00 0.00 84 1014.3
20260505110530 49 173 1.0 2.0 0.00 0.00 0.00 84 1014.3
20260505102032 50 0 0.0 2.0 0.00 0.00 0.00 83 1014.2
20260505101537 50 0 0.0 2.0 0.00 0.00 0.00 83 1014.1
20260505101029 50 173 1.0 2.0 0.00 0.00 0.00 82 1014.1
20260505100529 50 0 0.0 1.0 0.00 0.00 0.00 82 1014.2
20260505100044 51 0 0.0 1.0 0.00 0.00 0.00 82 1014.3
20260505095532 51 0 0.0 2.0 0.00 0.00 0.00 82 1014.4
20260505095033 51 0 0.0 2.0 0.00 0.00 0.00 81 1014.5
20260505094544 51 0 0.0 0.0 0.00 0.00 0.00 82 1014.5
20260505094031 51 0 0.0 1.0 0.00 0.00 0.00 82 1014.3
20260505093529 51 0 0.0 1.0 0.00 0.00 0.00 82 1014.2
20260505093043 51 0 0.0 1.0 0.00 0.00 0.00 81 1014.2
20260505092531 51 0 0.0 1.0 0.00 0.00 0.00 81 1014.1
20260505092033 51 0 0.0 1.0 0.00 0.00 0.00 82 1014.2
20260505091601 51 0 0.0 1.0 0.00 0.00 0.00 81 1014.0
20260505091029 51 0 0.0 0.0 0.00 0.00 0.00 81 1014.2
20260505090530 51 0 0.0 0.0 0.00 0.00 0.00 81 1014.3
20260505090044 51 0 0.0 0.0 0.00 0.00 0.00 81 1014.5
20260505085532 51 0 0.0 0.0 0.00 0.00 0.00 81 1014.4
20260505085030 51 0 0.0 0.0 0.00 0.00 0.00 81 1014.4
20260505084540 51 0 0.0 0.0 0.00 0.00 0.00 81 1014.5
20260505084029 51 0 0.0 0.0 0.00 0.00 0.00 81 1014.5
20260505083529 51 0 0.0 0.0 0.00 0.00 0.00 81 1014.4
20260505083039 52 0 0.0 0.0 0.00 0.00 0.00 80 1014.4
20260505082529 52 0 0.0 0.0 0.00 0.00 0.00 80 1014.4
20260505082029 52 0 0.0 0.0 0.00 0.00 0.00 80 1014.4
20260505081554 52 0 0.0 0.0 0.00 0.00 0.00 80 1014.3
20260505081029 52 0 0.0 0.0 0.00 0.00 0.00 80 1014.4
20260505080529 52 0 0.0 0.0 0.00 0.00 0.00 80 1014.4
20260505080050 52 0 0.0 0.0 0.00 0.00 0.00 80 1014.4
20260505075529 52 0 0.0 0.0 0.00 0.00 0.00 79 1014.4
20260505075029 52 0 0.0 0.0 0.00 0.00 0.00 79 1014.4
20260505074548 53 0 0.0 0.0 0.00 0.00 0.00 79 1014.3
20260505074028 53 0 0.0 0.0 0.00 0.00 0.00 78 1014.4
20260505073529 53 0 0.0 0.0 0.00 0.00 0.00 78 1014.4
20260505073043 53 0 0.0 0.0 0.00 0.00 0.00 78 1014.4
20260505072533 53 0 0.0 0.0 0.00 0.00 0.00 78 1014.5
20260505072030 53 0 0.0 0.0 0.00 0.00 0.00 78 1014.5
20260505071550 53 0 0.0 0.0 0.00 0.00 0.00 77 1014.4
20260505071029 53 0 0.0 0.0 0.00 0.00 0.00 77 1014.5
20260505070532 53 0 0.0 0.0 0.00 0.00 0.00 77 1014.4
20260505070049 53 0 0.0 0.0 0.00 0.00 0.00 77 1014.5
20260505065529 53 0 0.0 0.0 0.00 0.00 0.00 76 1014.4
20260505065029 53 0 0.0 0.0 0.00 0.00 0.00 77 1014.5
20260505064542 53 0 0.0 0.0 0.00 0.00 0.00 76 1014.5
20260505064029 53 0 0.0 0.0 0.00 0.00 0.00 77 1014.5
20260505063529 53 0 0.0 0.0 0.00 0.00 0.00 76 1014.5
20260505063051 53 0 0.0 0.0 0.00 0.00 0.00 76 1014.5
20260505062531 53 0 0.0 0.0 0.00 0.00 0.00 76 1014.5
20260505062029 53 0 0.0 0.0 0.00 0.00 0.00 76 1014.6
20260505061604 53 0 0.0 0.0 0.00 0.00 0.00 75 1014.6
20260505061031 54 0 0.0 0.0 0.00 0.00 0.00 75 1014.7
20260505060533 54 0 0.0 0.0 0.00 0.00 0.00 75 1014.7
20260505060048 54 0 0.0 0.0 0.00 0.00 0.00 74 1014.6
20260505055530 54 0 0.0 0.0 0.00 0.00 0.00 74 1014.7
20260505055030 54 0 0.0 0.0 0.00 0.00 0.00 74 1014.7
20260505054544 55 0 0.0 0.0 0.00 0.00 0.00 74 1014.8
20260505054032 55 0 0.0 0.0 0.00 0.00 0.00 73 1014.8
20260505053529 55 0 0.0 0.0 0.00 0.00 0.00 73 1014.8
20260505053046 55 0 0.0 0.0 0.00 0.00 0.00 73 1014.8
20260505052533 55 0 0.0 0.0 0.00 0.00 0.00 72 1014.7
20260505052032 56 0 0.0 0.0 0.00 0.00 0.00 72 1014.8
20260505051601 56 0 0.0 0.0 0.00 0.00 0.00 71 1014.7
20260505051033 56 0 0.0 0.0 0.00 0.00 0.00 71 1014.7
20260505050532 56 0 0.0 0.0 0.00 0.00 0.00 71 1014.8
20260505041543 57 0 0.0 0.0 0.00 0.00 0.00 68 1014.7
20260505041031 58 0 0.0 0.0 0.00 0.00 0.00 68 1014.6
20260505040536 58 0 0.0 0.0 0.00 0.00 0.00 67 1014.6
20260505040042 59 0 0.0 0.0 0.00 0.00 0.00 65 1014.6
20260505035530 59 0 0.0 0.0 0.00 0.00 0.00 65 1014.6
20260505035034 59 0 0.0 0.0 0.00 0.00 0.00 65 1014.7
20260505034541 59 0 0.0 0.0 0.00 0.00 0.00 65 1014.7
20260505034029 59 0 0.0 0.0 0.00 0.00 0.00 65 1014.8
20260505033533 59 0 0.0 0.0 0.00 0.00 0.00 65 1014.8